Other Surface Observations
Issued by NWS

Home | Current Version | Previous Version | Text Only | Print | Product List | Glossary On
Versions: 1 2 3 4 5 6 7 8 9 10 11 12 13 14 15 16 17 18 19 20 21 22 23 24 25 26 27 28 29 30 31 32 33 34 35 36 37 38 39 40 41 42 43 44 45 46 47 48 49 50
808
SXUS52 KTAE 251818
OSOTAE
OSOTAE
North Florida/South Alabama/Southwest Georgia Weather Roundup
National Weather Service Tallahassee Florida
200 PM EDT SAT MAR 25 2017

Note: "fair" indicates few or no clouds below 12,000 feet with no
significant weather and/or obstructions to visibility.

!FLZ017-115-028-034-025-251900
...North Florida...

CITY           SKY/WX    TMP DP  RH WIND       PRES   REMARKS
TALLAHASSEE    PTSUNNY   78  57  48 S13       30.21F
APALACHICOLA   FAIR      73  65  75 SE15      30.21F
PERRY          PTSUNNY   80  55  41 SE8       30.22F
CROSS CITY     FAIR      79  54  41 E5        30.21F
JACKSONVILLE   PTSUNNY   79  56  45 SE18G25   30.24F
$$

!FLZ112-006-005-002-011-251900
...Florida Panhandle...

CITY           SKY/WX    TMP DP  RH WIND       PRES   REMARKS
MARIANNA       PTSUNNY   79  58  48 SE9       30.17F
BONIFAY        CLOUDY    77  59  53 S9        30.18F
PANAMA CITY NW PTSUNNY   75  59  57 SE22      30.19F
TYNDALL AFB    FAIR      76  61  60 S20G25    30.19F
TYND DRONE APT FAIR      76  62  62 S22G37    30.19F
DE FUNIAK SPR  MOCLDY    76  60  56 S20       30.17F
EGLIN AFB      PTSUNNY   72  63  72 SE17      30.17F
DESTIN         CLOUDY    74  68  81 SE14      30.17F
HURLBURT       CLOUDY    72  64  78 SE15G26   30.14F
CRESTVIEW      PTSUNNY   75  60  59 S9G22     30.16F
PENSACOLA      CLOUDY    75  65  70 S21G28    30.14F
$$

!ALZ063-066-251900
...South Alabama...

CITY           SKY/WX    TMP DP  RH WIND       PRES   REMARKS
DOTHAN         CLOUDY    76  57  51 S10G20    30.21F
OZARK CAIRNS   PTSUNNY   78  58  50 S14G20    30.16F
FT RUCKER HELI PTSUNNY   76  57  52 S8G16     30.16F
RUCKER HELI 3  CLOUDY    75  57  53 S12       30.14F
RUCKER HELI 2  PTSUNNY   77  57  50 S9G20     30.16F
FLORALA APT    FAIR      75  59  57 S15G23    30.16F
ANDALUSIA      PTSUNNY   80  58  46 S10G20    30.14F
TROY           CLOUDY    75  57  53 SE16G22   30.16F
EUFALA         FAIR      81  55  40 S9G17     30.16F
MOBILE         CLOUDY    74  64  71 SE20G26   30.10F
$$

!GAZ120>161-251900
...Southwest and South Central Georgia...

CITY           SKY/WX    TMP DP  RH WIND       PRES   REMARKS
THOMASVILLE    PTSUNNY   77  59  53 S9        30.23F
BAINBRIDGE     FAIR      79  54  41 S7G17     30.20F
MOODY AFB      PTSUNNY   76  53  44 S5        30.21F
VALDOSTA       CLOUDY    76  54  46 SE6       30.22F
MOULTRIE       FAIR      77  54  44 S8        30.22F
BLAKELY        FAIR      79  54  41 S6        30.20F
ALBANY         PTSUNNY   77  54  44 SE13G20   30.22F
TIFTON         PTSUNNY   74  56  52 S9        30.22F
FITZGERALD     FAIR      77  56  49 S5        30.26F
CORDELE        MOCLDY    78  55  44 SE13      30.24F
AMERICUS       MOCLDY    73  48  40 S9        30.23F
HOMERVILLE     FAIR      77  57  50 SE7       30.24F
$$

!GMZ750-755-770-775-251900
...Coastal and Buoy Obs...

STATION/POSITION TIME  TEMP    WIND        PRES    VSBY  WAVE
                       AIR SEA DIR/SP/G                  HT/PER
                 (UTC) (F)     (DEG/KT/KT) (MB)    (MI)  (FT/S)
KEATON BEACH     1800   69     170/ 12/ 14 1023.1F
CEDAR KEY        1800   71     220/  4/  6 1023.5F
C TOWER          1800   68     130/ 16/ 17 1023.2F
APALACHICOLA BUO 1750   69 69  130/ 14/ 16 1022.4F         3/ 5
PANAMA CITY BUOY 1750   71 71              1021.8F         5/ 7
MOBILE BUOY      1800   72 73  150/ 17/ 21 1019.8
ORANGE BCH AL BU 1750   70 69  140/ 14/ 17 1020.1F         5/ 6
$$




USA.gov is the U.S. government's official web portal to all federal, state and local government web resources and services.